Walla Walla, WA

3:21 PM PDT on October 19, 2017 (GMT -0700)
Walla Walla Regional

Weather History for KALW - May, 2013

Change the Weather History Date:

Friday, May 24, 2013

  Actual Average Record
Temperature  
Mean Temperature 54 °F 61 °F  
Max Temperature 63 °F 73 °F 93 °F (1992)
Min Temperature 46 °F 50 °F 40 °F (1950)
Degree Days  
Heating Degree Days 10 5  
Month to date heating degree days 178  
Since 1 July heating degree days 4919  
Cooling Degree Days 0 1  
Month to date cooling degree days 21  
Year to date cooling degree days 23  
Growing Degree Days 4 (Base 50)    
Moisture  
Dew Point 41 °F    
Average Humidity 67    
Maximum Humidity 87    
Minimum Humidity 35    
Precipitation  
Precipitation 0.08 in 0.07 in 1.21 in (1958)
Month to date precipitation 1.63  
Year to date precipitation 10.14  
Snow  
Snow 0.00 in 0.00 in 0.00 in (2002)
Month to date snowfall 0.0  
Year to date snowfall 6.0  
Since 1 July snowfall 11.7  
Snow Depth -    
Sea Level Pressure  
Sea Level Pressure 30.01 in    
Wind  
Wind Speed 8 mph (South)    
Max Wind Speed 15 mph    
Max Gust Speed 16 mph    
Visibility 10 miles    
Events Rain    
T = Trace of Precipitation, MM = Missing Value Source: NWS Daily Summary

Daily Weather History Graph

Daily Weather History Graph

Search for Another Location

Airport or City:

Trip Planner

Search our weather history database for the weather conditions in past years. The results will help you decide how hot, cold, wet, or windy it might be!

Date:

Astronomy

May. 24, 2013 Rise Set
Actual Time 5:11 AM PDT 8:29 PM PDT
Civil Twilight 4:34 AM PDT 9:06 PM PDT
Nautical Twilight 3:47 AM PDT 9:54 PM PDT
Astronomical Twilight 2:47 AM PDT 10:54 PM PDT
Moon 8:15 PM PDT (5/24) 4:50 AM PDT (5/24)
Length of Visible Light 16h 31m
Length of Day
15h 18m
Full, 100% of the Moon is Illuminated
May 24
Full
May 24
Full
May 31
Last Quarter
Jun 8
New
Jun 16
First Quarter

Hourly Weather History & Observations

Time (PDT) Temp. Windchill Dew Point Humidity Pressure Visibility Wind Dir Wind Speed Gust Speed Precip Events Conditions
12:53 AM 48.0 °F - 37.9 °F 68% 29.96 in 10.0 mi ESE 4.6 mph - N/A   Clear
1:53 AM 48.0 °F - 37.9 °F 68% 29.96 in 10.0 mi SSE 5.8 mph - N/A   Clear
2:53 AM 48.0 °F - 39.0 °F 71% 29.99 in 10.0 mi SSW 10.4 mph - N/A   Clear
3:32 AM 48.2 °F - 42.8 °F 82% 30.00 in 10.0 mi SSW 10.4 mph - N/A   Overcast
3:53 AM 48.0 °F - 41.0 °F 77% 30.01 in 10.0 mi SSW 15.0 mph - N/A   Overcast
4:53 AM 46.0 °F 41.4 °F 42.1 °F 86% 30.01 in 9.0 mi South 9.2 mph - 0.03 in Rain Light Rain
5:48 AM 46.4 °F 45.2 °F 42.8 °F 87% 30.00 in 10.0 mi South 3.5 mph - 0.03 in Rain Light Rain
5:53 AM 46.0 °F 43.9 °F 42.1 °F 86% 30.01 in 10.0 mi South 4.6 mph - 0.03 in Rain Light Rain
6:53 AM 46.9 °F - 43.0 °F 86% 30.01 in 10.0 mi Calm Calm - 0.01 in Rain Light Rain
7:53 AM 46.9 °F - 42.1 °F 83% 30.01 in 10.0 mi South 4.6 mph - 0.00 in   Mostly Cloudy
8:53 AM 52.0 °F - 43.0 °F 71% 30.01 in 10.0 mi SW 9.2 mph - N/A   Overcast
9:53 AM 54.0 °F - 42.1 °F 64% 30.01 in 10.0 mi SW 10.4 mph - 0.00 in   Overcast
10:53 AM 53.1 °F - 42.1 °F 66% 30.02 in 10.0 mi West 13.8 mph - 0.00 in Rain Light Rain
11:53 AM 52.0 °F - 44.1 °F 74% 30.03 in 10.0 mi South 12.7 mph - 0.00 in Rain Light Rain
12:03 PM 51.8 °F - 44.6 °F 76% 30.02 in 8.0 mi South 11.5 mph - 0.00 in Rain Light Rain
12:53 PM 54.0 °F - 45.0 °F 72% 30.03 in 10.0 mi SW 10.4 mph - 0.01 in Rain Light Rain
1:32 PM 53.6 °F - 42.8 °F 67% 30.02 in 10.0 mi South 15.0 mph - 0.00 in   Overcast
1:53 PM 57.0 °F - 43.0 °F 59% 30.02 in 10.0 mi WSW 8.1 mph 16.1 mph 0.00 in   Overcast
2:53 PM 59.0 °F - 43.0 °F 55% 30.02 in 10.0 mi South 10.4 mph - N/A   Mostly Cloudy
3:53 PM 57.0 °F - 42.1 °F 57% 30.02 in 10.0 mi SSE 15.0 mph - 0.00 in   Mostly Cloudy
4:53 PM 59.0 °F - 39.9 °F 49% 30.01 in 10.0 mi South 12.7 mph - N/A   Partly Cloudy
5:53 PM 61.0 °F - 39.9 °F 46% 30.00 in 10.0 mi South 9.2 mph - N/A   Mostly Cloudy
6:53 PM 63.0 °F - 35.1 °F 35% 30.01 in 10.0 mi WSW 10.4 mph - N/A   Partly Cloudy
7:53 PM 60.1 °F - 39.0 °F 46% 30.01 in 10.0 mi WSW 6.9 mph - N/A   Clear
8:53 PM 55.0 °F - 39.0 °F 55% 30.02 in 10.0 mi Variable 5.8 mph - N/A   Clear
9:53 PM 53.1 °F - 39.9 °F 61% 30.03 in 10.0 mi SSE 8.1 mph - N/A   Clear
10:53 PM 50.0 °F - 39.0 °F 66% 30.01 in 10.0 mi SE 6.9 mph - N/A   Clear
11:53 PM 51.1 °F - 37.9 °F 61% 30.01 in 10.0 mi SSE 6.9 mph - N/A   Clear